Вернуться в каталог

STARLINK-3801

АктивенСвязьVLEO
NORAD 52356·PAYLOAD·🇺🇸 United States

Запущен Apr 29, 2022 с Cape Canaveral Space Force Station

Loading…

Ближайшие Пролёты (ближайшие 24 часа)

TLE

СвежийSource: CelesTrak SupGP

Эпоха: Sep 14, 2026, 14:24 UTC

1 52356C 22045AB  26257.60048611 -.00046199  00000+0 -13654-2 0  2570
2 52356  53.1591  56.9895 0001216  89.2797  21.0968 15.34403503    16

Отслеживайте STARLINK-3801 в реальном времени с AllMySat

Download on the App Store